Volver al catálogo

FALCON 9 R/B

ActivoHEO
NORAD 54028·ROCKET BODY·🇺🇸 United States

Lanzado Oct 8, 2022 desde Cape Canaveral Space Force Station

Loading…

Próximos Pases (próximas 24 horas)

TLE

ActualizadoSource: Space-Track

Época: Sep 14, 2026, 16:55 UTC

1 54028U 22128C   26257.70511958  .00011930  00000-0  85078-3 0  9997
2 54028  26.7073  94.7486 5717084 346.3081   3.0977  4.52180045 61508

Sigue FALCON 9 R/B en tiempo real con AllMySat

Download on the App Store